FW4805 Weather Reports


time (UTC)temp
F
wind
direction
speed
knots
gust
knots
rain 1hr
in
rain 24hr
in
rain mn
in
humidity
%
barometer
mb
20260508081959 71 261 7.0 11.3 0.00 0.00 0.00 50 1018.1
20260508080959 71 268 7.8 13.9 0.00 0.00 0.00 49 1018.2
20260508074958 70 272 4.3 8.7 0.00 0.00 0.00 47 1018.3
20260508073959 70 277 4.3 8.7 0.00 0.00 0.00 46 1018.2
20260508072959 70 272 5.2 9.6 0.00 0.00 0.00 45 1017.9
20260508071959 70 275 6.1 12.2 0.00 0.00 0.00 43 1018.0
20260508070959 70 270 0.9 6.1 0.00 0.00 0.00 43 1017.8
20260508065959 70 269 1.7 8.7 0.00 0.00 0.00 44 1017.9
20260508064959 68 92 0.0 1.7 0.00 0.00 0.00 50 1017.7
20260508063959 68 120 0.9 3.5 0.00 0.00 0.00 47 1017.4
20260508062959 68 144 0.9 5.2 0.00 0.00 0.00 50 1017.1
20260508061959 67 90 0.0 1.7 0.00 0.00 0.00 54 1017.1
20260508060959 67 0 0.0 0.0 0.00 0.00 0.00 61 1016.8
20260508055959 66 0 0.0 0.0 0.00 0.00 0.00 63 1016.6
20260508054959 65 0 0.0 0.0 0.00 0.00 0.00 63 1016.5
20260508052959 64 234 0.0 0.9 0.00 0.00 0.00 62 1016.3
20260508051959 64 203 0.0 0.9 0.00 0.00 0.00 62 1016.2
20260508050959 64 203 0.0 0.9 0.00 0.00 0.00 63 1016.1
20260508044959 62 265 0.0 0.9 0.00 0.00 0.00 61 1016.0
20260508043959 62 0 0.0 0.0 0.00 0.00 0.00 60 1015.9
20260508042959 62 227 0.0 0.9 0.00 0.00 0.00 61 1016.0
20260508041959 62 0 0.0 0.0 0.00 0.00 0.00 59 1016.1
20260508035959 62 147 0.0 0.9 0.00 0.00 0.00 54 1016.1
20260508034959 63 0 0.0 0.0 0.00 0.00 0.00 52 1016.0
20260508033959 64 0 0.0 0.0 0.00 0.00 0.00 52 1016.0
20260508032959 64 147 0.0 0.9 0.00 0.00 0.00 47 1016.0
20260508031959 65 147 0.0 0.9 0.00 0.00 0.00 44 1015.9
20260508030959 66 156 0.0 1.7 0.00 0.00 0.00 41 1015.6
20260508024959 67 271 1.7 4.3 0.00 0.00 0.00 39 1015.6
20260508023959 67 261 0.9 4.3 0.00 0.00 0.00 39 1015.5
20260508022959 67 261 1.7 7.0 0.00 0.00 0.00 39 1015.8
20260508020959 67 262 0.9 3.5 0.00 0.00 0.00 39 1015.8
20260508015959 67 264 0.9 3.5 0.00 0.00 0.00 39 1015.9
20260508014959 66 266 0.0 1.7 0.00 0.00 0.00 42 1016.1
20260508013959 66 260 1.7 4.3 0.00 0.00 0.00 43 1016.0
20260508013000 67 275 5.2 9.6 0.00 0.00 0.00 42 1016.0
20260508012000 68 267 3.5 9.6 0.00 0.00 0.00 40 1016.0
20260508011000 67 273 7.0 10.4 0.00 0.00 0.00 41 1015.8
20260508005959 68 269 3.5 11.3 0.00 0.00 0.00 39 1015.6
20260508004000 68 262 6.1 13.9 0.00 0.00 0.00 38 1016.0
20260508003000 68 262 7.0 12.2 0.00 0.00 0.00 38 1016.0
20260508002000 69 256 7.8 13.9 0.00 0.00 0.00 37 1016.0
20260508001000 68 257 7.8 11.3 0.00 0.00 0.00 37 1016.0
20260508000000 69 251 7.8 14.8 0.00 0.00 0.00 37 1016.0
20260507235000 69 247 8.7 13.9 0.00 0.00 0.00 36 1015.9
20260507234000 69 248 7.8 15.6 0.00 0.00 0.00 35 1016.1
20260507232959 69 250 7.8 15.6 0.00 0.00 0.00 35 1016.2
20260507231959 69 249 7.0 13.9 0.00 0.00 0.00 35 1016.4
20260507225959 68 247 6.1 12.2 0.00 0.00 0.00 37 1016.6
20260507224959 69 244 7.8 13.9 0.00 0.00 0.00 37 1016.5
20260507223959 69 246 9.6 13.9 0.00 0.00 0.00 38 1016.5
20260507222959 68 243 8.7 14.8 0.00 0.00 0.00 39 1016.9
20260507221959 69 240 7.8 15.6 0.00 0.00 0.00 39 1017.0
20260507220959 69 244 9.6 14.8 0.00 0.00 0.00 39 1016.9
20260507215959 69 244 11.3 17.4 0.00 0.00 0.00 38 1016.9
20260507214959 69 245 8.7 14.8 0.00 0.00 0.00 38 1016.9
20260507214000 69 246 9.6 15.6 0.00 0.00 0.00 39 1016.9
20260507213000 68 245 7.8 15.6 0.00 0.00 0.00 39 1016.9
20260507212000 69 242 7.8 13.9 0.00 0.00 0.00 39 1017.0
20260507211000 69 241 7.8 13.9 0.00 0.00 0.00 39 1016.9
20260507205000 68 241 8.7 13.9 0.00 0.00 0.00 39 1016.8
20260507203959 68 240 10.4 20.0 0.00 0.00 0.00 39 1016.8
20260507202959 68 240 8.7 17.4 0.00 0.00 0.00 38 1016.8
20260507201959 68 237 8.7 14.8 0.00 0.00 0.00 39 1016.7
20260507200959 68 242 10.4 19.1 0.00 0.00 0.00 40 1016.8
20260507195959 67 244 10.4 16.5 0.00 0.00 0.00 43 1016.9
20260507194959 67 251 11.3 17.4 0.00 0.00 0.00 44 1016.8
20260507193959 68 255 10.4 15.6 0.00 0.00 0.00 43 1016.9
20260507192000 68 261 10.4 13.9 0.00 0.00 0.00 42 1017.1
20260507191000 68 261 9.6 13.9 0.00 0.00 0.00 38 1016.9
20260507190000 69 258 7.8 11.3 0.00 0.00 0.00 37 1016.9
20260507185000 69 249 7.8 13.9 0.00 0.00 0.00 36 1016.9
20260507184000 69 243 7.8 13.9 0.00 0.00 0.00 35 1016.8
20260507183000 69 243 6.1 10.4 0.00 0.00 0.00 35 1016.8
20260507182000 69 240 5.2 10.4 0.00 0.00 0.00 34 1016.9
20260507181000 69 250 2.6 9.6 0.00 0.00 0.00 35 1016.8
20260507180000 69 249 3.5 11.3 0.00 0.00 0.00 34 1016.8
20260507175000 69 249 2.6 10.4 0.00 0.00 0.00 34 1016.8
20260507174000 69 248 4.3 9.6 0.00 0.00 0.00 34 1016.7
20260507172959 69 246 4.3 13.9 0.00 0.00 0.00 35 1016.8
20260507171959 69 253 5.2 12.2 0.00 0.00 0.00 34 1016.8
20260507171000 69 249 6.1 9.6 0.00 0.00 0.00 35 1016.6
20260507165959 70 249 6.1 11.3 0.00 0.00 0.00 36 1016.7
20260507164959 70 247 5.2 10.4 0.00 0.00 0.00 37 1016.7
20260507162000 71 248 3.5 12.2 0.00 0.00 0.00 37 1016.8
20260507161000 71 242 4.3 10.4 0.00 0.00 0.00 38 1016.8
20260507160000 72 231 4.3 10.4 0.00 0.00 0.00 38 1017.0
20260507155000 72 240 3.5 13.9 0.00 0.00 0.00 38 1016.8
20260507152959 71 242 6.1 14.8 0.00 0.00 0.00 39 1016.7
20260507152000 71 248 6.1 13.9 0.00 0.00 0.00 39 1016.7
20260507151000 71 248 8.7 15.6 0.00 0.00 0.00 39 1016.9
20260507145000 72 252 11.3 15.6 0.00 0.00 0.00 41 1016.6
20260507144000 72 247 11.3 14.8 0.00 0.00 0.00 40 1016.4
20260507143000 73 246 11.3 16.5 0.00 0.00 0.00 40 1016.4
20260507142000 73 249 11.3 14.8 0.00 0.00 0.00 41 1016.3
20260507141000 73 251 13.9 19.1 0.00 0.00 0.00 41 1016.4
20260507140000 72 252 13.0 15.6 0.00 0.00 0.00 41 1016.3
20260507135000 72 251 13.0 15.6 0.00 0.00 0.00 42 1016.6
20260507134000 73 248 13.9 16.5 0.00 0.00 0.00 39 1016.6
20260507133000 75 250 12.2 19.1 0.00 0.00 0.00 37 1016.6
20260507130000 75 254 11.3 17.4 0.00 0.00 0.00 37 1016.6
20260507125000 76 261 12.2 20.0 0.00 0.00 0.00 37 1016.6
20260507122959 75 263 13.0 20.0 0.00 0.00 0.00 32 1016.7
20260507122000 76 260 12.2 15.6 0.00 0.00 0.00 32 1016.9
20260507121000 75 264 13.9 20.9 0.00 0.00 0.00 34 1016.9
20260507120000 74 265 16.5 20.0 0.00 0.00 0.00 37 1017.1
20260507114000 75 270 14.8 21.7 0.00 0.00 0.00 34 1017.1
20260507113000 75 272 14.8 19.1 0.00 0.00 0.00 37 1017.0
20260507112000 75 270 14.8 21.7 0.00 0.00 0.00 38 1016.9
20260507111000 75 270 13.9 19.1 0.00 0.00 0.00 41 1016.9
20260507110000 75 268 13.9 15.6 0.00 0.00 0.00 39 1016.8
20260507104000 75 273 13.9 16.5 0.00 0.00 0.00 39 1016.8
20260507103000 74 268 14.8 15.6 0.00 0.00 0.00 35 1016.7
20260507102000 75 270 13.0 19.1 0.00 0.00 0.00 38 1016.7
20260507101000 75 278 13.0 17.4 0.00 0.00 0.00 39 1016.5
20260507095000 75 270 13.0 19.1 0.00 0.00 0.00 33 1016.4
20260507094000 75 270 13.9 16.5 0.00 0.00 0.00 34 1016.7
20260507093000 74 270 14.8 21.7 0.00 0.00 0.00 40 1016.8
20260507092001 74 265 13.0 20.9 0.00 0.00 0.00 43 1016.9
20260507091000 74 269 13.0 17.4 0.00 0.00 0.00 41 1017.0
20260507090000 74 264 13.0 19.1 0.00 0.00 0.00 41 1017.0
20260507085000 73 261 12.2 14.8 0.00 0.00 0.00 46 1016.9
20260507084000 73 265 13.0 16.5 0.00 0.00 0.00 45 1016.9